Find Starlink 11325

NORAD ID: 61538 Int'l Des: 2024-184 Owner: SPXS Country: US Constellation: starlink operational
LEOCIRCULAR

Live Position

Loading 3D Globe...

About Starlink 11325

Description loading...

Upcoming Passes

Passes for default location (London). Set your location on the main map for personalized predictions.

Altitude History

Loading altitude history...

Two-Line Element Set

1 61538U 24184G 26126.77439539 -.00000118 00000-0 38803-5 0 9994
2 61538 53.1593 309.6689 0001107 132.6832 227.4279 15.69715617 89543
Epoch: May 6, 2026 • Age: 13 hours

Current Status

Altitude 365.7 km
Velocity 7.70 km/s
Sub-Earth Point 53.31°N, 63.56°E
Launch Date Oct 15, 2024
Age 1.5 years
Type internet

Technical Details

Classification Payload
Mass 960.00 kg
Dry Mass 910.00 kg
Total Mass 960.00 kg
Length 0.30 m
Diameter 4.10 m
Span 29.00 m
Shape Box + pan
Manufacturer SPXS
Bus Type Starlink V2MD
Phase Status In Orbit
Owner/State SPXS/US

Most Searched